Waarnemingen

Advertentie
Mijn weer
F16-A, Nederland (6206): temperatuur & dauwpunt: 14.10.2018 04:00:00 - 20.10.2018 04:00:00 (CEST)F16-A, Nederland (6206): windsnelheid & windstoten: 14.10.2018 04:00:00 - 20.10.2018 04:00:00 (CEST)F16-A, Nederland (6206): windrichting: 14.10.2018 04:00:00 - 20.10.2018 04:00:00 (CEST)F16-A, Nederland (6206): luchtdruk: 14.10.2018 04:00:00 - 20.10.2018 04:00:00 (CEST)F16-A, Nederland (6206): zicht: 14.10.2018 04:00:00 - 20.10.2018 04:00:00 (CEST)
Datum & Tijd tt [°C] td [°C] ff [km/u] ff [kn] fx [km/u] fx [kn] dd ppp [hPa] vv [km]
20.10.2018 04:00:00 13,7 10,2 18 10 22 12 W 1027,4 10
20.10.2018 03:00:00 13,3 9,7 21 11 22 12 WZW 1026,9 10
20.10.2018 02:00:00 13,1 9,3 18 10 22 12 WZW 1026,9 10
20.10.2018 01:00:00 13,1 8,5 18 10 18 10 W 1026,9 10
20.10.2018 00:00:00 12,9 7,5 18 10 22 12 W 1027,1 10
19.10.2018 23:00:00 12,8 7,5 22 12 25 14 W 1026,7 10
19.10.2018 22:00:00 13,1 9,3 26 14 25 14 WZW 1026,6 10
19.10.2018 21:00:00 13,1 9,2 24 13 22 12 W 1026,4 10
19.10.2018 20:00:00 13,4 9,3 18 10 36 19 WZW 1026,0 10
19.10.2018 19:00:00 13,4 8,0 26 14 32 18 ZW 1025,6 10
19.10.2018 18:00:00 13,4 7,6 24 13 25 14 ZZW 1025,3 10
19.10.2018 17:00:00 13,5 7,1 24 13 32 18 ZZW 1025,3 10
19.10.2018 16:00:00 13,2 7,7 31 17 32 18 ZZW 1025,3 10
19.10.2018 15:00:00 13,5 5,1 21 11 25 14 Z 1025,8 10
19.10.2018 14:00:00 13,4 5,5 22 12 25 14 Z 1026,3 10
19.10.2018 13:00:00 13,3 4,5 21 11 22 12 ZZO 1026,5 10
19.10.2018 12:00:00 13,3 4,1 15 8 18 10 Z 1026,6 10
19.10.2018 11:00:00 13,2 4,2 18 10 22 12 ZO 1026,5 10
19.10.2018 10:00:00 13,0 4,1 16 9 18 10 ZZO 1026,4 10
19.10.2018 09:00:00 12,7 4,0 13 7 14 8 ZO 1026,2 10
19.10.2018 08:00:00 12,4 3,8 4 2 11 6 - 1026,5 10
19.10.2018 07:00:00 12,4 3,9 8 4 18 10 N 1026,7 10
19.10.2018 06:00:00 12,5 4,2 4 2 11 6 - 1026,7 10
19.10.2018 05:00:00 12,4 4,1 8 4 11 6 Z 1027,0 10
19.10.2018 04:00:00 12,3 4,7 5 3 11 6 - 1027,2 10
19.10.2018 03:00:00 12,2 6,3 11 6 14 8 ONO 1027,2 10
19.10.2018 02:00:00 12,2 5,7 11 6 14 8 ONO 1027,5 10
19.10.2018 01:00:00 12,2 5,2 13 7 18 10 ONO 1027,8 10
19.10.2018 00:00:00 12,2 5,3 15 8 22 12 ONO 1028,0 10
18.10.2018 23:00:00 12,3 5,7 16 9 18 10 ONO 1028,1 10
18.10.2018 22:00:00 12,3 5,7 21 11 22 12 NO 1028,0 10
18.10.2018 21:00:00 12,4 6,4 22 12 25 14 NO 1027,9 10
18.10.2018 20:00:00 12,4 6,6 24 13 25 14 NO 1027,8 10
18.10.2018 19:00:00 12,5 7,0 24 13 29 16 NO 1027,6 10
18.10.2018 18:00:00 12,6 6,5 26 14 29 16 NO 1027,4 10
18.10.2018 17:00:00 12,7 7,0 29 16 32 18 NO 1027,3 10
18.10.2018 16:00:00 12,9 7,8 25 14 29 16 NO 1027,2 27
18.10.2018 15:00:00 13,0 8,1 28 15 29 16 NO 1027,5 10
18.10.2018 14:00:00 13,1 8,2 28 15 29 16 NO 1027,4 10
18.10.2018 13:00:00 13,2 8,4 24 13 25 14 NO 1027,5 10
18.10.2018 12:00:00 13,4 8,5 24 13 25 14 NO 1027,2 10
18.10.2018 11:00:00 13,2 8,8 24 13 25 14 NNO 1027,0 10
18.10.2018 10:00:00 13,0 8,9 22 12 25 14 NNO 1026,5 10
18.10.2018 09:00:00 12,8 8,4 22 12 25 14 N 1026,1 10
18.10.2018 08:00:00 12,7 8,7 26 14 29 16 NNW 1025,4 10
18.10.2018 07:00:00 12,7 9,2 29 16 32 18 NNW 1025,0 10
18.10.2018 06:00:00 12,7 9,6 29 16 29 16 NNW 1024,7 10
18.10.2018 05:00:00 12,7 9,7 24 13 25 14 NNW 1024,3 10
18.10.2018 04:00:00 12,8 9,6 26 14 29 16 NNW 1024,2 10
18.10.2018 03:00:00 13,0 9,5 29 16 32 18 NNW 1024,1 10
18.10.2018 02:00:00 13,0 10,2 28 15 29 16 NNW 1023,9 10
18.10.2018 01:00:00 13,1 10,7 22 12 25 14 NW 1023,5 10
18.10.2018 00:00:00 13,3 10,8 24 13 25 14 NW 1023,1 10
17.10.2018 23:00:00 13,4 10,5 22 12 22 12 NW 1022,6 10
17.10.2018 22:00:00 13,6 10,9 21 11 22 12 NNW 1022,2 10
17.10.2018 21:00:00 13,7 11,5 18 10 18 10 NW 1021,6 10
17.10.2018 20:00:00 13,8 11,2 16 9 18 10 NNW 1021,1 10
17.10.2018 19:00:00 13,8 11,9 16 9 18 10 NW 1020,2 10
17.10.2018 18:00:00 14,0 12,2 13 7 22 12 NNW 1019,7 10
17.10.2018 17:00:00 14,1 12,3 18 10 22 12 NW 1019,2 10
17.10.2018 16:00:00 14,3 12,3 13 7 25 14 W 1018,9 10
17.10.2018 15:00:00 14,3 12,3 16 9 18 10 W 1018,6 10
17.10.2018 14:00:00 14,3 11,4 16 9 18 10 WZW 1018,4 10
17.10.2018 13:00:00 14,3 10,8 16 9 22 12 ZW 1018,2 10
17.10.2018 12:00:00 14,3 11,4 21 11 22 12 WZW 1018,0 10
17.10.2018 11:00:00 14,5 12,3 22 12 22 12 ZW 1017,7 10
17.10.2018 10:00:00 14,7 12,2 24 13 22 12 ZW 1017,2 10
17.10.2018 09:00:00 14,8 12,9 24 13 22 12 ZW 1016,7 10
17.10.2018 08:00:00 15,1 13,6 26 14 25 14 ZW 1016,2 10
17.10.2018 07:00:00 15,2 13,9 21 11 22 12 ZW 1015,9 10
17.10.2018 06:00:00 15,3 14,0 21 11 22 12 ZW 1015,7 10
17.10.2018 05:00:00 15,5 14,1 29 16 29 16 ZW 1015,5 10
17.10.2018 04:00:00 15,9 14,5 31 17 32 18 ZZW 1015,5 10
17.10.2018 03:00:00 16,3 14,4 37 20 36 19 ZZW 1015,5 10
17.10.2018 02:00:00 16,4 14,3 34 18 36 19 ZZW 1015,5 10
17.10.2018 01:00:00 16,5 14,2 35 19 32 18 - 1015,7 10
17.10.2018 00:00:00 16,4 14,3 41 22 40 21 ZZW 1016,0 10
16.10.2018 23:00:00 16,3 14,2 29 16 32 18 ZZW 1016,3 10
16.10.2018 22:00:00 16,2 14,4 29 16 36 19 ZZW 1016,3 10
16.10.2018 21:00:00 16,0 14,6 24 13 29 16 ZZW 1016,2 10
16.10.2018 20:00:00 15,8 15,2 24 13 22 12 ZZW 1016,3 9
16.10.2018 19:00:00 14,6 14,5 18 10 22 12 ZZW 1015,9 2,4
16.10.2018 18:00:00 15,5 14,9 24 13 32 18 ZW 1016,1 6
16.10.2018 17:00:00 15,5 14,7 26 14 29 16 ZZW 1015,8 6
16.10.2018 16:00:00 15,7 14,7 29 16 36 19 - 1016,1 8
16.10.2018 15:00:00 15,9 14,9 39 21 40 21 Z 1015,7 8
16.10.2018 14:00:00 15,7 15,0 24 13 25 14 Z 1015,9 9
16.10.2018 13:00:00 15,3 15,0 22 12 29 16 Z 1016,3 3,1
16.10.2018 12:00:00 14,5 14,5 31 17 32 18 Z 1016,5 0,2
16.10.2018 11:00:00 14,9 14,7 24 13 25 14 ZZO 1016,7 5
16.10.2018 10:00:00 14,5 14,2 18 10 18 10 ZO 1016,5 5
16.10.2018 09:00:00 14,4 13,8 18 10 18 10 OZO 1016,2 8
16.10.2018 08:00:00 14,2 13,6 21 11 22 12 O 1015,9 8
16.10.2018 07:00:00 14,1 13,3 22 12 22 12 O 1015,8 7
16.10.2018 06:00:00 14,2 13,2 21 11 22 12 ONO 1015,6 5
16.10.2018 05:00:00 14,3 12,9 26 14 25 14 ONO 1015,4 10
16.10.2018 04:00:00 14,2 12,5 28 15 32 18 ONO 1015,0 10
16.10.2018 03:00:00 14,3 12,5 31 17 32 18 ONO 1015,0 10
16.10.2018 02:00:00 14,4 12,5 34 18 36 19 ONO 1014,8 10
16.10.2018 01:00:00 14,4 12,3 31 17 29 16 ONO 1015,1 10
16.10.2018 00:00:00 14,5 12,5 34 18 40 21 ONO 1014,9 10
15.10.2018 23:00:00 14,4 12,7 42 23 47 25 ONO 1014,2 10
15.10.2018 22:00:00 14,1 12,4 46 25 50 27 ONO 1013,8 10
15.10.2018 21:00:00 13,7 12,3 44 24 43 23 NO 1013,7 10
15.10.2018 20:00:00 13,8 12,5 44 24 50 27 ONO 1014,1 10
15.10.2018 19:00:00 13,6 12,4 48 26 50 27 ONO 1013,1 10
15.10.2018 18:00:00 13,4 12,4 52 28 54 29 NO 1012,4 9
15.10.2018 17:00:00 13,6 12,6 50 27 50 27 NO 1012,4 9
15.10.2018 16:00:00 13,8 12,9 50 27 50 27 NO 1011,9 7
15.10.2018 15:00:00 13,9 12,9 44 24 43 23 NO 1011,8 8
15.10.2018 14:00:00 14,4 13,4 39 21 43 23 ONO 1011,7 8
15.10.2018 13:00:00 14,4 13,4 39 21 43 23 ONO 1011,5 9
15.10.2018 12:00:00 14,2 13,3 41 22 43 23 NO 1011,4 8
15.10.2018 11:00:00 14,1 13,2 41 22 43 23 NO 1011,0 8
15.10.2018 10:00:00 14,1 13,1 44 24 47 25 ONO 1010,5 10
15.10.2018 09:00:00 13,8 12,9 44 24 47 25 ONO 1010,2 10
15.10.2018 08:00:00 13,5 12,5 31 17 36 19 NO 1011,2 10
15.10.2018 07:00:00 13,3 12,3 37 20 40 21 NO 1010,4 10
15.10.2018 06:00:00 13,3 12,2 39 21 40 21 NO 1010,2 10
15.10.2018 05:00:00 13,4 12,3 37 20 36 19 NO 1010,1 10
15.10.2018 04:00:00 13,2 12,0 37 20 40 21 NO 1010,2 10
15.10.2018 03:00:00 12,8 11,6 44 24 43 23 NO 1009,7 10
15.10.2018 02:00:00 12,4 11,3 44 24 47 25 NNO 1010,0 10
15.10.2018 01:00:00 12,2 10,9 52 28 50 27 NNO 1009,6 10
15.10.2018 00:00:00 12,6 11,4 46 25 47 25 N 1009,4 10
14.10.2018 23:00:00 13,0 12,0 42 23 43 23 N 1009,2 10
14.10.2018 22:00:00 12,9 12,0 39 21 36 19 NNW 1008,1 10
14.10.2018 21:00:00 13,4 12,5 28 15 32 18 NNW 1007,5 10
14.10.2018 20:00:00 13,9 13,3 24 13 32 18 NNW 1007,0 5
14.10.2018 19:00:00 16,3 15,0 34 18 43 23 ZZW 1005,9 10
14.10.2018 18:00:00 16,4 14,7 41 22 43 23 ZZW 1005,2 10
14.10.2018 17:00:00 16,5 14,3 39 21 43 23 Z 1005,3 10
14.10.2018 16:00:00 16,3 14,2 39 21 40 21 Z 1004,7 10
14.10.2018 15:00:00 16,1 14,5 31 17 29 16 Z 1004,7 10
14.10.2018 14:00:00 16,2 14,5 29 16 29 16 ZZO 1005,1 10
14.10.2018 13:00:00 16,3 14,6 24 13 25 14 Z 1005,8 10
14.10.2018 12:00:00 16,2 14,6 26 14 29 16 Z 1006,5 10
14.10.2018 11:00:00 16,3 14,5 31 17 32 18 Z 1006,9 10
14.10.2018 10:00:00 16,5 14,7 39 21 40 21 Z 1007,0 10
14.10.2018 09:00:00 16,6 14,7 41 22 40 21 Z 1007,0 10
14.10.2018 08:00:00 16,7 14,8 44 24 43 23 Z 1006,9 10
14.10.2018 07:00:00 16,7 14,8 41 22 43 23 Z 1006,9 10
14.10.2018 06:00:00 17,0 14,9 42 23 43 23 Z 1007,6 10
14.10.2018 05:00:00 17,3 14,9 48 26 47 25 Z 1007,8 10
14.10.2018 04:00:00 17,5 15,0 50 27 50 27 Z 1008,3 10

tt = temperatuur
td = dauwpunt
ff = windsnelheid
fx = windstoten
dd = windrichting
ppp = luchtdruk
vv = zicht

Weerstations in de omgeving